CZ-3A DEB, 40157

Orbit data source: Space-Track

CZ-3A DEB, 40157 is space debris in HEO originally from a launch on Fri, 02 Feb 2007 UTC launched from the Xichang Space Center, China (XSC). Debris objects in space refer to the collection of defunct objects orbiting the Earth. Examples of debris include non-operational satellites, rocket bodies, and fragments generated from explosions, collisions, or faulty payload assembly.

Not visible in the next 10 days
Identifier
40157, 2007-003AR
Orbit
HEO
Country
Flag of CNCN / PRC
Related business
Manufacturer
Unknown
Mission
Spacecraft
Bus & Motor
Unknown
Mass
Unknown
Launch date (UTC)
2007-02-02 (19 years ago)
Launch vehicle
Unknown
Launch site
Xichang Space Center, China (XSC)
Object type
Payload
Rocket body
Debris
Shape & HBR
Unknown shape, 0.2 m
Radar Cross Section
Medium (>0.1 m² and <1 m²)

Expand to show TLE details & history
Last TLE update: 3 days ago

TLE from 3 days ago
0 CZ-3A DEB
1 40157U 07003AR  26170.92769250 -.00000294  00000-0 -15470-2 0  9999
2 40157  25.2779 353.2440 7447021  46.7813 353.1872  1.83739774108340
Epoch: 2026-06-19T22:15Z
TLE epoch observation values (Epoch: 2026-06-19T22:15:52.631Z)
Latitude
-5.78732°
Longitude
98.7696°
Altitude
2,798.933 km
Speed
8.527 km/s
True Right ascension
22h 43m 33s
True Declination
-5° 45' 38"
Sunlit
Object was in daylight at epoch
Visualization orbit readout
Latitude
Unknown
Longitude
Unknown
Altitude
Unknown
Speed
Unknown
Apparent Right ascension
Unknown
Apparent Declination
Unknown
Sunlit
N/A
Visualization observer readout
Local Sidereal Time
21:40:52
Azimuth
Unknown
Elevation
Unknown
Doppler factor
Unknown
Orbital elements
Apogee altitude
42,755.649 km
Perigee altitude
811.487 km
Semi-major axis
28,161.705 km
Eccentricity
0.7447
Inclination
25.2779°
RAAN
353.244°
Arg. of periapsis
46.7813°
True anomaly
300.79658°
Mean anomaly
353.1872°
Eccentric anomaly
335.47813°
Mean motion
0.45926 °/min
Orbital period
783.88 mins
BSTAR
-0.001547
Loading maneuver chart data...
Computing Atmospheric mass density...
Loading historical data...
Loading historical data...
Loading historical data...
Loading historical data...
Loading historical data...
Loading historical data...
Loading historical data...

Documentation

Showing up to 5 results
|